Date,TemperatureHighF,TemperatureAvgF,TemperatureLowF,DewpointHighF,DewpointAvgF,DewpointLowF,HumidityHigh,HumidityAvg,HumidityLow,PressureMaxIn,PressureMinIn,WindSpeedMaxMPH,WindSpeedAvgMPH,GustSpeedMaxMPH,PrecipitationSumIn
2012-1-8,64,55,50,43,35,29,60,36,26,30.22,30.12,5,1,0,0.00
2012-1-9,66,56,51,44,37,30,68,39,26,30.22,30.13,3,0,0,0.00
2012-1-10,58,50,46,50,41,32,96,67,34,30.16,30.08,4,1,0,0.00
2012-1-11,63,51,45,48,43,38,95,69,35,30.12,30.02,2,0,0,0.00
2012-1-12,64,54,48,50,40,34,81,48,31,30.10,30.00,5,1,0,0.00
2012-1-13,69,61,55,41,33,26,40,25,16,30.18,30.09,3,0,0,0.00
2012-1-14,67,57,48,49,37,28,90,41,19,30.17,30.08,3,0,0,0.00
2012-1-15,52,48,45,46,42,35,92,74,47,30.18,30.07,10,1,0,0.00
2012-1-16,48,43,39,37,34,28,76,61,37,30.35,30.17,11,1,0,0.00
2012-1-17,50,42,38,39,35,28,83,69,31,30.42,30.34,4,1,0,0.00
2012-1-18,51,44,36,44,38,30,95,74,56,30.43,30.29,5,1,0,0.00
2012-1-19,52,47,42,49,44,39,97,88,76,30.28,30.10,3,0,0,0.06
2012-1-20,57,54,50,56,53,49,99,98,95,30.10,29.85,9,2,0,0.12
2012-1-21,54,49,43,54,47,42,100,93,79,30.18,29.78,9,2,0,0.24
2012-1-22,56,50,44,53,46,39,94,83,63,30.19,29.85,9,2,0,0.07
2012-1-23,55,51,47,54,50,45,99,95,87,30.18,29.77,12,2,0,0.12
2012-1-24,56,50,45,52,47,44,96,89,71,30.41,30.17,3,1,0,0.00
2012-1-25,65,54,47,56,50,44,97,83,66,30.42,30.30,5,2,0,0.00
2012-1-26,62,54,49,58,53,49,99,94,81,30.34,30.22,5,1,0,0.00
2012-1-27,60,53,49,52,47,34,99,75,36,30.24,30.17,4,2,0,0.00
2012-1-28,67,55,47,48,41,34,60,49,35,30.27,30.19,6,2,0,0.00
2012-1-29,67,57,49,48,42,33,89,48,29,30.23,30.12,3,0,0,0.00
2012-1-30,60,52,48,50,46,41,98,77,51,30.12,30.03,4,1,0,0.00
2012-1-31,59,49,45,51,47,44,97,91,69,30.22,30.06,5,1,0,0.00
2012-2-1,55,49,44,52,47,42,98,91,79,30.28,30.19,5,1,0,0.00
2012-2-2,63,52,47,50,44,39,92,69,31,30.22,29.95,4,1,0,0.00
2012-2-3,63,52,45,50,42,35,95,64,33,30.04,29.96,3,1,0,0.00
2012-2-4,65,55,50,42,34,30,56,35,20,30.09,30.01,4,0,0,0.00
2012-2-5,68,58,53,41,36,32,46,33,19,30.08,29.97,3,1,0,0.00
2012-2-6,61,54,49,51,44,35,87,62,28,29.98,29.76,9,1,0,0.00
2012-2-7,61,56,51,51,47,36,90,66,29,30.09,29.70,9,1,0,0.00
2012-2-8,64,54,48,53,49,46,94,81,59,30.22,30.08,4,1,0,0.00
2012-2-9,69,58,49,51,48,44,89,62,41,30.24,30.13,5,0,0,0.00
2012-2-10,59,53,48,55,49,43,98,86,55,30.22,30.11,4,0,0,0.11
2012-2-11,51,49,47,50,48,45,99,97,91,30.11,30.03,7,1,0,0.03
2012-2-12,51,48,46,48,47,44,97,92,86,30.11,30.02,4,0,0,0.02
2012-2-13,49,47,44,47,45,41,98,91,75,30.05,29.95,18,2,0,0.18
2012-2-14,53,48,44,48,45,43,95,87,75,30.15,30.01,7,1,0,0.00
2012-2-15,53,47,43,48,42,37,97,78,57,30.15,30.06,16,2,0,0.05
2012-2-16,60,49,43,47,40,33,96,65,29,30.25,30.15,6,1,0,0.00
2012-2-17,55,48,42,50,46,41,99,94,75,30.28,30.20,6,1,0,0.00
2012-2-18,52,48,45,49,46,42,100,90,76,30.24,30.13,12,2,0,0.01
2012-2-19,51,45,41,44,42,39,94,85,68,30.17,30.09,6,1,0,0.00
2012-2-20,57,49,43,50,46,42,98,87,68,30.21,30.10,4,0,0,0.00
2012-2-21,60,51,46,52,48,45,98,85,64,30.29,30.19,5,2,0,0.00
2012-2-22,73,57,48,56,50,47,96,72,38,30.25,30.09,6,2,0,0.00
2012-2-23,63,53,47,53,48,40,99,78,45,30.09,29.95,9,2,0,0.00
2012-2-24,68,58,48,48,40,32,91,47,19,30.22,29.97,4,1,0,0.00
2012-2-25,54,48,44,47,44,41,94,82,53,30.30,30.15,6,2,0,0.00
2012-2-26,53,46,43,44,39,33,94,70,46,30.15,29.90,13,2,0,0.00
2012-2-27,48,44,41,43,40,36,94,80,64,30.02,29.86,11,2,0,0.02
2012-2-28,52,46,44,43,41,38,89,75,58,30.28,30.02,6,1,0,0.02
2012-2-29,50,48,42,50,46,42,98,93,72,30.29,30.15,8,1,0,0.17
2012-3-1,50,45,41,49,44,40,98,95,84,30.33,30.24,4,0,0,0.02
2012-3-2,62,48,40,45,41,35,97,71,33,30.34,30.25,6,1,0,0.00
2012-3-3,66,54,47,43,36,31,65,41,26,30.32,30.23,5,1,0,0.00
2012-3-4,77,60,51,52,45,40,75,48,24,30.22,30.04,10,2,0,0.00
2012-3-5,60,52,45,52,46,44,98,75,50,30.09,30.02,9,2,0,0.00
2012-3-6,50,46,43,47,42,38,99,83,56,30.07,29.98,18,3,0,0.05
2012-3-7,62,48,42,42,34,26,91,51,22,30.19,30.03,5,2,0,0.00
2012-3-8,67,52,42,42,33,26,80,40,21,30.34,30.18,3,0,0,0.00
2012-3-9,76,56,45,52,39,31,94,47,15,30.33,30.13,5,1,0,0.00
2012-3-10,57,48,43,50,46,42,96,90,68,30.13,30.03,6,1,0,0.00
2012-3-11,57,49,43,49,45,41,95,83,60,30.11,30.04,4,0,0,0.00
2012-3-12,55,49,42,50,46,41,97,86,67,30.06,29.97,6,1,0,0.00
2012-3-13,57,52,49,51,50,48,96,86,74,30.04,29.95,7,2,0,0.00
2012-3-14,59,55,52,54,52,50,93,89,80,30.16,30.01,9,2,0,0.00
2012-3-15,60,54,52,56,53,50,99,92,83,30.17,30.08,5,1,0,0.00
2012-3-16,57,53,48,54,52,48,99,97,87,30.10,29.76,6,2,0,0.70
2012-3-17,48,44,41,48,43,40,99,95,82,29.76,29.53,12,1,0,0.39
2012-3-18,51,44,41,43,40,37,95,79,61,29.97,29.72,13,3,0,0.08
2012-3-19,53,45,39,41,39,33,94,74,43,30.10,29.96,6,1,0,0.01
2012-3-20,60,52,45,50,45,37,96,73,55,30.19,30.09,4,1,0,0.00
2012-3-21,66,55,49,56,50,48,98,82,53,30.17,30.00,5,1,0,0.00
2012-3-22,52,49,44,52,47,41,99,91,75,30.04,29.95,11,1,0,0.00
2012-3-23,55,47,40,46,41,34,90,75,45,30.10,29.91,5,1,0,0.00
2012-3-24,53,46,43,48,43,37,98,88,62,29.92,29.80,6,1,0,0.76
2012-3-25,57,47,42,51,45,41,99,91,70,29.93,29.78,9,1,0,0.27
2012-3-26,55,49,44,50,45,41,94,84,69,30.11,29.93,7,1,0,0.00
2012-3-27,61,53,49,53,48,41,97,76,65,30.06,29.93,11,3,0,0.08
2012-3-28,58,52,48,56,52,47,99,98,86,30.14,29.97,5,1,0,0.02
2012-3-29,64,52,46,54,50,45,100,91,52,30.16,30.07,5,0,0,0.00
2012-3-30,62,53,47,55,51,47,99,92,69,30.12,29.94,5,0,0,0.00
2012-3-31,58,52,46,52,49,45,98,89,68,30.09,29.79,9,2,0,0.54
2012-4-1,55,48,45,47,44,42,95,81,62,30.29,30.09,11,2,0,0.05
2012-4-2,62,50,44,50,46,42,97,82,43,30.26,30.07,8,1,0,0.00
2012-4-3,59,51,46,52,48,44,97,86,65,30.12,30.04,10,1,0,0.07
2012-4-4,54,47,42,48,43,40,98,82,62,30.20,30.12,13,2,0,0.01
2012-4-5,52,46,43,44,41,38,83,75,58,30.22,30.12,12,2,0,0.00
2012-4-6,54,46,40,45,41,38,93,78,52,30.28,30.15,7,1,0,0.00
2012-4-7,62,51,44,50,42,35,92,65,37,30.15,30.06,4,1,0,0.00
2012-4-8,60,49,42,50,44,34,97,81,39,30.08,30.00,5,1,0,0.00
2012-4-9,59,50,44,50,45,25,96,79,24,30.01,29.87,7,1,0,0.00
2012-4-10,54,51,49,53,49,44,99,93,67,29.90,29.83,9,1,0,0.30
2012-4-11,56,51,48,53,50,47,100,92,73,30.04,29.83,12,2,0,0.04
2012-4-12,58,52,47,53,49,45,98,86,67,30.07,29.83,11,3,0,0.33
2012-4-13,53,48,44,51,46,43,98,89,75,29.92,29.72,10,2,0,0.65
2012-4-14,56,49,45,50,46,43,93,85,71,30.17,29.92,13,2,0,0.03
2012-4-15,56,50,47,51,48,46,97,91,76,30.24,30.17,5,1,0,0.00
2012-4-16,66,52,46,53,48,45,99,87,53,30.25,30.18,9,1,0,0.00
2012-4-17,65,53,48,57,50,45,98,87,60,30.18,30.11,6,1,0,0.00
2012-4-18,60,53,48,53,50,48,99,89,69,30.17,30.10,9,2,0,0.00
2012-4-19,68,56,50,59,54,50,99,91,67,30.17,30.07,6,2,0,0.00
2012-4-20,84,64,50,64,57,50,99,73,43,30.08,29.95,7,2,0,0.00
2012-4-21,78,64,49,63,56,47,96,71,52,29.95,29.87,4,1,0,0.00
2012-4-22,59,52,46,55,50,45,99,94,82,29.95,29.89,5,1,0,0.00
2012-4-23,62,55,51,56,52,51,99,90,71,30.01,29.92,6,1,0,0.00
2012-4-24,63,57,53,55,53,51,93,83,67,30.04,29.95,6,1,0,0.00
2012-4-25,65,57,53,58,54,52,99,90,71,30.02,29.80,4,0,0,0.12
2012-4-26,59,53,48,54,51,46,100,90,64,30.21,29.80,8,1,0,0.26
2012-4-27,59,51,46,52,48,44,95,84,61,30.24,30.14,10,2,0,0.00
2012-4-28,58,52,47,53,50,46,98,91,77,30.16,29.92,13,2,0,0.00
2012-4-29,68,52,49,59,51,49,99,94,67,29.95,29.89,6,1,0,0.00
2012-4-30,59,52,48,56,51,48,100,95,78,30.00,29.92,9,1,0,0.00
2012-5-1,54,49,47,50,47,45,98,91,76,29.99,29.94,14,2,0,0.00
2012-5-2,55,49,46,49,46,44,94,87,74,30.03,29.95,11,2,0,0.00
2012-5-3,59,52,45,54,50,44,98,89,77,30.11,30.00,3,1,0,0.00
2012-5-4,57,51,47,53,48,45,99,88,68,30.24,30.09,9,2,0,0.12
2012-5-5,64,53,44,52,47,43,98,77,50,30.22,30.06,5,2,0,0.00
2012-5-6,73,58,46,52,48,43,96,61,35,30.07,29.99,6,1,0,0.00
2012-5-7,77,62,49,58,49,44,96,58,31,30.01,29.95,6,1,0,0.00
2012-5-8,69,53,47,58,50,46,99,88,59,29.99,29.94,5,1,0,0.00
2012-5-9,56,50,47,52,48,46,99,93,79,30.00,29.93,7,2,0,0.00
2012-5-10,61,52,46,54,48,46,98,85,55,29.96,29.88,5,1,0,0.00
2012-5-11,56,50,46,53,48,45,99,95,78,29.99,29.88,4,1,0,0.00
2012-5-12,62,50,46,57,49,46,100,96,76,30.08,29.99,5,1,0,0.00
2012-5-13,58,52,49,54,50,48,100,91,76,30.11,30.06,5,1,0,0.00
2012-5-14,60,54,50,56,51,47,95,87,82,30.11,30.05,4,0,0,0.00
2012-5-15,59,52,49,54,50,48,99,93,77,30.08,30.02,7,1,0,0.00
2012-5-16,58,51,48,54,50,48,99,95,81,30.03,29.98,7,1,0,0.00
2012-5-17,55,50,48,52,49,47,100,94,82,29.99,29.92,11,1,0,0.00
2012-5-18,59,50,47,52,48,46,95,89,74,30.02,29.94,9,1,0,0.00
2012-5-19,58,50,46,53,48,45,97,89,75,30.02,29.96,10,1,0,0.00
2012-5-20,61,53,47,55,50,46,98,88,69,30.05,29.97,9,2,0,0.00
2012-5-21,62,54,49,56,52,49,100,93,74,30.11,30.02,10,1,0,0.00
2012-5-22,60,54,50,56,52,49,100,92,73,30.14,30.07,13,2,0,0.00
2012-5-23,57,52,48,51,49,47,99,89,73,30.07,29.96,11,3,0,0.00
2012-5-24,56,50,47,52,48,46,98,91,82,29.95,29.81,18,3,0,0.00
2012-5-25,54,50,47,49,47,45,97,90,76,29.89,29.79,10,2,0,0.00
2012-5-26,52,50,48,50,49,48,100,96,89,30.15,29.89,5,1,0,0.08
2012-5-27,58,51,47,52,49,46,97,90,76,30.16,30.08,10,1,0,0.00
2012-5-28,59,51,47,53,49,46,99,90,73,30.09,30.05,11,2,0,0.00
2012-5-29,58,50,47,52,48,46,97,91,76,30.09,30.04,8,2,0,0.00
2012-5-30,57,50,48,53,49,47,99,95,83,30.12,30.07,8,1,0,0.00
2012-5-31,64,53,48,57,51,47,99,90,70,30.07,29.89,9,2,0,0.00
2012-6-1,54,51,49,54,51,49,100,99,95,29.90,29.85,8,1,0,0.00
2012-6-2,61,53,50,58,52,49,100,96,83,30.00,29.90,8,1,0,0.01
2012-6-3,63,53,48,56,51,48,100,91,71,29.98,29.92,10,2,0,0.00
2012-6-4,58,53,49,57,52,48,99,94,83,30.15,29.91,6,1,0,0.30
2012-6-5,57,51,48,51,49,46,99,89,73,30.20,30.14,17,2,0,0.01
2012-6-6,57,50,46,52,48,46,98,90,77,30.14,30.01,11,2,0,0.00
2012-6-7,62,53,46,56,51,46,99,91,73,30.06,29.99,11,2,0,0.00
2012-6-8,58,52,48,52,49,46,98,87,67,30.02,29.97,12,3,0,0.00
2012-6-9,63,53,45,52,48,44,98,79,56,30.00,29.88,9,2,0,0.00
2012-6-10,78,66,50,54,46,42,83,39,27,29.90,29.84,7,1,0,0.00
2012-6-11,70,62,50,55,49,43,94,58,31,29.99,29.87,5,1,0,0.00
2012-6-12,60,53,50,56,51,49,98,93,77,30.02,29.95,9,1,0,0.00
2012-6-13,54,51,49,53,50,49,100,97,91,30.00,29.84,10,1,0,0.00
2012-6-14,55,51,48,52,49,47,99,94,84,29.88,29.82,5,1,0,0.00
2012-6-15,59,52,48,53,50,47,97,89,73,29.88,29.80,7,1,0,0.00
2012-6-16,70,59,50,60,54,49,98,78,56,29.86,29.80,5,1,0,0.00
2012-6-17,62,54,51,58,53,50,99,95,84,29.92,29.83,5,1,0,0.00
2012-6-18,59,52,49,57,52,48,100,96,85,29.95,29.90,6,1,0,0.00
2012-6-19,59,53,48,54,51,47,99,92,80,29.94,29.85,6,1,0,0.00
2012-6-20,64,53,48,56,51,47,99,92,67,29.89,29.83,6,1,0,0.00
2012-6-21,58,53,50,54,51,49,98,92,80,30.00,29.87,6,1,0,0.00
2012-6-22,62,54,49,55,51,48,97,88,72,29.99,29.88,6,1,0,0.00
2012-6-23,61,55,49,55,52,49,99,88,65,29.96,29.85,8,1,0,0.01
2012-6-24,62,55,48,53,50,47,97,81,58,30.05,29.95,9,1,0,0.01
2012-6-25,65,56,49,56,52,48,96,83,60,30.10,30.05,11,1,0,0.00
2012-6-26,63,56,51,56,52,49,96,85,71,30.05,29.91,9,2,0,0.00
2012-6-27,63,56,50,57,53,50,99,89,72,29.98,29.88,9,2,0,0.00
2012-6-28,64,56,51,58,54,50,99,90,70,30.10,29.97,10,1,0,0.00
2012-6-29,63,56,53,59,55,52,100,95,82,30.12,30.04,6,1,0,0.00
2012-6-30,66,59,54,61,58,54,100,95,79,30.05,29.96,5,1,0,0.00
2012-7-1,65,58,55,60,57,55,100,95,77,29.98,29.91,10,1,0,0.00
2012-7-2,57,55,53,55,54,52,100,97,92,29.97,29.88,6,1,0,0.01
2012-7-3,62,55,52,57,53,51,97,92,78,29.96,29.88,9,2,0,0.00
2012-7-4,57,54,52,54,53,52,97,94,87,29.95,29.85,6,1,0,0.00
2012-7-5,60,55,52,56,53,52,96,90,79,30.03,29.94,12,1,0,0.00
2012-7-6,59,54,51,56,53,51,99,94,85,30.05,29.99,7,1,0,0.00
2012-7-7,60,54,51,57,53,51,100,96,86,30.02,29.97,4,1,0,0.00
2012-7-8,56,52,50,55,52,50,100,99,96,30.07,29.99,6,1,0,0.01
2012-7-9,58,53,51,56,52,51,100,98,89,30.06,29.98,9,1,0,0.00
2012-7-10,60,52,49,56,51,49,100,98,84,29.98,29.88,6,1,0,0.00
2012-7-11,64,53,48,59,52,48,100,95,78,29.91,29.84,5,1,0,0.00
2012-7-12,56,51,48,55,51,48,100,99,92,29.92,29.83,6,1,0,0.00
2012-7-13,55,52,50,54,52,50,100,98,92,29.99,29.88,7,1,0,0.00
2012-7-14,60,54,50,56,53,50,100,95,82,30.00,29.93,4,1,0,0.00
2012-7-15,58,53,50,55,53,50,100,97,89,29.95,29.88,6,1,0,0.01
2012-7-16,62,55,52,57,54,52,100,93,81,29.94,29.87,11,1,0,0.00
2012-7-17,61,56,53,57,54,53,98,92,82,30.01,29.92,5,0,0,0.00
2012-7-18,64,58,54,57,54,53,95,85,71,30.02,29.97,6,1,0,0.00
2012-7-19,65,57,52,59,55,52,99,91,75,30.05,29.96,11,2,0,0.00
2012-7-20,63,56,53,58,55,53,100,94,80,30.08,30.00,10,2,0,0.00
2012-7-21,68,57,51,62,55,51,100,90,68,30.01,29.91,7,1,0,0.00
2012-7-22,57,53,51,56,53,51,100,98,93,29.98,29.91,4,1,0,0.00
2012-7-23,60,55,53,57,54,53,100,96,88,29.99,29.94,3,1,0,0.00
2012-7-24,62,56,53,57,54,52,97,91,78,29.99,29.93,7,1,0,0.00
2012-7-25,63,57,53,58,55,53,98,92,78,30.02,29.95,4,1,0,0.00
2012-7-26,60,56,53,56,54,52,95,90,82,30.01,29.94,5,1,0,0.00
2012-7-27,61,56,52,57,54,52,99,92,79,30.06,29.98,5,1,0,0.00
2012-7-28,57,53,52,55,53,52,100,98,90,30.09,30.01,5,1,0,0.00
2012-7-29,56,53,51,55,53,51,100,99,93,30.08,30.00,7,1,0,0.00
2012-7-30,62,55,52,59,54,52,100,96,83,30.01,29.92,4,1,0,0.01
2012-7-31,63,54,52,58,53,52,100,97,81,30.02,29.95,4,0,0,0.00
2012-8-1,58,53,51,56,53,51,100,98,88,30.08,30.01,6,1,0,0.00
2012-8-2,58,53,50,57,53,50,100,99,91,30.02,29.94,4,1,0,0.00
2012-8-3,58,54,50,57,53,50,100,99,93,29.95,29.88,3,0,0,0.01
2012-8-4,58,55,53,58,55,53,100,99,96,29.98,29.79,9,0,0,0.01
2012-8-5,65,57,55,60,56,54,100,95,79,30.08,29.98,5,1,0,0.00
2012-8-6,68,58,53,61,56,53,100,92,73,30.10,30.03,9,2,0,0.00
2012-8-7,63,56,53,58,54,52,100,92,76,30.08,29.99,12,2,0,0.00
2012-8-8,64,56,52,58,54,52,100,93,77,30.02,29.94,7,2,0,0.00
2012-8-9,62,54,51,58,53,51,100,97,83,29.96,29.86,7,2,0,0.00
2012-8-10,58,53,50,56,52,50,100,98,90,29.87,29.79,6,2,0,0.00
2012-8-11,61,53,50,58,53,50,100,97,85,29.85,29.76,6,1,0,0.00
2012-8-12,63,55,50,62,54,50,100,96,81,29.86,29.81,6,1,0,0.00
2012-8-13,65,56,50,60,54,50,100,95,77,29.87,29.81,5,0,0,0.00
2012-8-14,60,56,54,58,55,54,100,98,92,29.86,29.81,4,0,0,0.00
2012-8-15,61,56,54,58,55,53,99,95,86,29.91,29.81,4,0,0,0.00
2012-8-16,65,58,53,61,56,51,98,94,81,29.95,29.90,6,1,0,0.00
2012-8-17,67,56,52,60,33,-8,89,41,2,29.98,29.92,5,1,0,0.00
2012-8-18,69,58,53,56,17,0,58,17,4,29.97,29.92,9,2,0,0.00
2012-8-19,58,54,51,0,0,0,0,0,100,29.99,29.91,8,1,0,0.00
2012-8-20,55,52,50,0,0,0,0,0,100,29.96,29.91,5,1,0,0.00
2012-8-21,55,52,50,0,0,0,0,0,100,29.97,29.90,6,1,0,0.00
2012-8-22,59,54,51,0,0,0,0,0,100,29.99,29.92,4,1,0,0.00
2012-8-23,56,54,50,0,0,0,0,0,100,29.98,29.90,3,0,0,0.02
2012-8-24,60,53,50,49,6,-8,62,6,2,29.96,29.88,3,0,0,0.00
2012-8-25,57,53,51,36,2,-8,33,2,2,29.92,29.86,5,0,0,0.01
2012-8-26,64,56,50,57,28,-10,77,36,2,30.01,29.90,7,1,0,0.00
2012-8-27,70,58,52,60,28,-18,75,32,1,30.02,29.96,6,2,0,0.00
2012-8-28,75,63,56,63,48,-2,75,52,3,30.00,29.94,6,2,0,0.00
2012-8-29,72,57,49,61,27,-18,76,32,1,29.94,29.82,5,1,0,0.00
2012-8-30,58,52,50,0,0,0,0,0,100,29.90,29.80,5,0,0,0.00
2012-8-31,62,54,51,56,15,-10,75,19,2,30.01,29.90,9,1,0,0.01
2012-9-1,62,54,49,55,21,-18,74,26,1,30.07,29.99,7,1,0,0.00
2012-9-2,68,55,47,59,21,-9,77,26,2,29.99,29.92,5,1,0,0.00
2012-9-3,65,53,44,58,19,-8,75,24,2,29.99,29.92,5,1,0,0.01
2012-9-4,61,52,48,55,12,-16,76,15,1,30.04,29.99,6,1,0,0.00
2012-9-5,62,53,50,54,5,-17,73,6,1,30.00,29.96,5,0,0,0.00
2012-9-6,64,55,51,57,20,-19,76,25,1,30.02,29.95,6,1,0,0.00
2012-9-7,64,56,50,57,26,-19,76,34,1,30.08,30.00,6,1,0,0.00
2012-9-8,61,54,50,55,21,-19,75,26,1,30.06,29.99,9,2,0,0.00
2012-9-9,63,55,50,57,24,-18,75,30,1,30.01,29.92,12,2,0,0.00
2012-9-10,60,52,50,50,8,-4,63,8,3,29.96,29.88,9,1,0,0.00
2012-9-11,59,53,49,44,6,-17,50,6,1,29.99,29.87,3,0,0,0.00
2012-9-12,60,54,49,28,2,-15,20,1,1,30.08,29.98,5,0,0,0.00
2012-9-13,61,54,51,42,2,0,41,1,4,30.10,30.04,5,1,0,0.00
2012-9-14,61,54,50,54,8,-9,73,10,2,30.10,30.04,6,1,0,0.00
2012-9-15,63,54,49,57,14,-10,78,19,2,30.10,30.01,5,1,0,0.00
2012-9-16,58,51,48,49,5,-17,64,5,1,30.06,30.01,4,0,0,0.00
2012-9-17,62,54,50,55,27,-19,78,36,1,30.08,30.02,3,0,0,0.00
2012-9-18,61,53,49,55,20,-20,78,25,1,30.10,30.05,9,1,0,0.00
2012-9-19,61,54,50,55,17,-19,77,23,1,30.12,30.06,11,2,0,0.00
2012-9-20,60,53,47,55,23,-20,77,29,1,30.08,30.00,12,2,0,0.00
2012-9-21,61,53,49,55,18,-5,76,25,3,30.01,29.92,7,2,0,0.00
2012-9-22,60,52,49,54,12,-10,74,16,2,29.96,29.90,7,1,0,0.00
2012-9-23,62,50,45,56,7,-19,75,8,1,30.00,29.90,4,1,0,0.00
2012-9-24,54,51,47,0,0,0,0,0,100,30.00,29.92,5,1,0,0.00
2012-9-25,54,51,49,0,0,0,0,0,100,29.95,29.89,4,0,0,0.01
2012-9-26,53,51,49,0,0,0,0,0,100,29.93,29.88,4,0,0,0.00
2012-9-27,57,52,49,0,0,0,0,0,100,29.94,29.89,4,0,0,0.00
2012-9-28,56,52,51,0,0,0,0,0,100,29.99,29.90,3,0,0,0.00
2012-9-29,62,53,50,56,6,-18,76,7,1,30.05,29.96,4,1,0,0.00
2012-9-30,91,72,50,66,48,0,82,38,15,30.04,29.93,4,1,0,0.00
2012-10-1,95,81,73,59,51,45,37,27,17,29.94,29.84,5,2,0,0.00
2012-10-2,93,80,62,57,50,44,73,27,14,29.84,29.77,4,1,0,0.00
2012-10-3,70,61,56,59,34,-16,76,38,1,30.01,29.81,8,1,0,0.00
2012-10-4,65,57,52,58,27,-19,77,33,1,30.15,30.01,5,1,0,0.00
2012-10-5,69,58,53,59,21,-16,76,25,1,30.16,30.06,10,1,0,0.00
2012-10-6,69,60,54,58,45,0,75,56,7,30.06,29.96,10,2,0,0.00
2012-10-7,66,58,52,56,44,6,76,55,7,30.01,29.96,6,1,0,0.00
2012-10-8,67,57,50,58,27,-20,75,34,1,30.05,30.00,6,0,0,0.00
2012-10-9,66,57,50,58,20,-16,74,24,1,30.04,29.95,3,0,0,0.00
2012-10-10,62,55,52,51,8,-2,61,9,3,29.96,29.92,3,0,0,0.07
2012-10-11,57,53,51,46,9,0,56,9,6,29.99,29.90,3,0,0,0.08
2012-10-12,62,55,50,56,14,-16,74,18,1,30.23,29.97,3,0,0,0.00
2012-10-13,70,57,49,60,25,-19,73,30,1,30.28,30.17,6,2,0,0.00
2012-10-14,68,59,53,61,24,-16,73,28,1,30.19,30.06,6,2,0,0.00
2012-10-15,76,59,53,63,21,-4,73,24,2,30.08,29.97,9,2,0,0.00
2012-10-16,68,59,54,53,11,-8,51,8,2,30.00,29.88,12,1,0,0.00
2012-10-17,80,69,55,60,45,-3,73,37,2,29.88,29.78,6,2,0,0.00
2012-10-18,82,72,60,65,39,0,67,27,7,30.03,29.81,6,1,0,0.00
2012-10-19,69,60,54,57,5,0,57,4,3,30.06,29.93,5,0,0,0.00
2012-10-20,56,53,49,1,0,-19,5,0,1,29.93,29.87,7,1,0,0.01
2012-10-21,59,52,45,51,26,0,73,35,26,29.98,29.88,8,1,0,0.00
2012-10-22,59,53,50,51,19,-19,73,23,1,29.98,29.79,7,1,0,0.22
2012-10-23,60,53,47,50,28,-20,74,38,1,30.06,29.96,5,0,0,0.02
2012-10-24,62,54,46,55,40,-9,74,54,3,30.19,30.05,10,1,0,0.00
2012-10-25,68,58,54,59,47,0,74,60,4,30.20,30.15,6,1,0,0.00
2012-10-26,72,58,51,53,47,38,74,62,27,30.20,30.06,5,2,0,0.00
2012-10-27,78,63,54,59,52,29,72,60,26,30.06,29.94,5,2,0,0.00
2012-10-28,75,58,52,61,20,-17,72,21,1,30.02,29.93,5,1,0,0.00
2012-10-29,70,54,50,60,7,-16,72,8,1,30.10,30.02,3,1,0,0.00
2012-10-30,66,53,49,58,4,-16,69,5,1,30.10,30.00,4,0,0,0.01
2012-10-31,55,53,51,0,0,0,0,0,100,30.07,29.99,3,0,0,0.01
2012-11-1,59,55,52,0,0,0,0,0,100,30.04,30.00,3,0,0,0.08
2012-11-2,62,53,48,55,18,-19,73,24,1,30.08,30.03,5,1,0,0.00
2012-11-3,72,60,50,59,41,-19,72,48,1,30.11,30.04,4,2,0,0.00
2012-11-4,78,67,59,58,53,46,71,53,36,30.16,30.08,5,3,0,0.00
2012-11-5,86,75,67,55,47,40,57,28,18,30.09,30.00,3,0,0,0.00
2012-11-6,80,71,56,53,46,38,69,34,17,30.04,29.98,5,0,0,0.00
2012-11-7,56,52,50,48,1,-10,69,2,2,30.06,29.99,3,0,0,0.00
2012-11-8,60,51,42,49,26,-19,72,35,1,30.01,29.92,5,0,0,0.19
2012-11-9,54,46,40,47,18,-23,71,29,1,30.02,29.90,7,0,0,0.11
2012-11-10,56,47,40,48,24,0,72,36,7,30.25,30.02,8,1,0,0.08
2012-11-11,60,49,43,46,37,11,72,55,14,30.36,30.25,5,0,0,0.00
2012-11-12,61,52,46,48,41,36,70,58,33,30.35,30.20,6,2,0,0.00
2012-11-13,69,56,43,50,41,34,67,49,23,30.20,30.04,6,3,0,0.00
2012-11-14,72,62,58,48,42,38,49,37,25,30.05,29.97,4,0,0,0.00
2012-11-15,67,59,54,53,41,-8,68,44,2,30.00,29.94,11,0,0,0.00
2012-11-16,63,56,53,52,14,-13,69,16,1,29.99,29.86,4,0,0,0.41
2012-11-17,58,56,52,0,0,0,0,0,100,30.02,29.83,7,2,0,0.15
2012-11-18,60,53,48,52,17,0,71,24,9,30.18,30.01,5,0,0,0.06
2012-11-19,61,54,50,53,44,16,71,62,10,30.25,30.17,4,0,0,0.00
2012-11-20,64,57,53,51,24,-7,58,24,2,30.19,30.08,5,1,0,0.00
2012-11-21,60,56,50,41,7,-18,47,7,1,30.19,30.06,7,1,0,0.06
2012-11-22,63,53,46,54,24,-11,68,31,2,30.22,30.15,5,2,0,0.01
2012-11-23,70,57,48,57,46,25,69,58,29,30.19,30.11,6,2,0,0.00
2012-11-24,69,60,52,56,39,-17,67,44,1,30.13,30.00,5,2,0,0.00
2012-11-25,60,52,48,51,8,-19,68,10,1,30.01,29.92,5,1,0,0.00
2012-11-26,56,51,47,43,5,-21,65,6,1,30.09,29.94,4,0,0,0.00
2012-11-27,59,54,48,50,24,-19,69,29,1,30.12,29.99,5,1,0,0.00
2012-11-28,62,56,52,51,18,-15,69,22,1,30.08,29.84,15,2,0,0.19
2012-11-29,63,59,53,52,42,0,69,45,10,30.08,29.91,12,2,0,0.00
2012-11-30,62,56,53,47,4,0,49,4,4,30.06,29.86,12,3,0,1.66
2012-12-1,60,57,52,38,2,-14,32,2,1,30.08,29.96,7,2,0,0.05
2012-12-2,59,55,49,0,0,0,0,0,100,30.10,29.88,13,2,0,0.77
2012-12-3,60,51,45,53,7,-18,72,8,1,30.20,30.09,2,0,0,0.00
2012-12-4,57,52,47,32,1,-17,28,1,1,30.27,30.18,4,0,0,0.00
2012-12-5,61,58,53,40,2,-9,46,2,2,30.20,30.07,4,0,0,0.50
2012-12-6,57,53,50,48,10,-19,69,13,1,30.15,30.06,7,1,0,0.01
2012-12-7,60,50,45,53,9,0,72,10,6,30.12,30.06,4,2,0,0.00
2012-12-8,57,50,45,50,20,0,72,29,31,30.06,29.99,4,1,0,0.01
2012-12-9,63,56,50,48,45,41,69,58,44,30.14,30.06,3,2,0,0.00
2012-12-10,64,60,55,53,50,45,69,62,53,30.18,30.08,4,2,0,0.00
2012-12-11,62,55,51,52,29,-19,69,36,1,30.06,29.91,4,1,0,0.00
2012-12-12,54,48,45,47,25,0,72,37,10,29.93,29.86,4,0,0,0.09
2012-12-13,53,45,41,44,28,0,72,46,10,29.90,29.83,2,0,0,0.00
2012-12-14,52,46,42,45,37,30,73,63,51,30.01,29.84,1,0,0,0.00
2012-12-15,51,45,42,44,22,0,72,36,15,30.08,30.00,0,0,0,0.12
2012-12-16,54,49,44,23,3,-9,20,3,2,30.11,30.02,3,1,0,0.00
2012-12-17,58,51,47,37,2,0,34,2,9,30.10,30.00,3,1,0,0.15
2012-12-18,51,47,43,42,39,24,72,67,27,30.17,30.00,6,2,0,0.00
2012-12-19,52,45,38,38,34,30,72,59,36,30.32,30.18,2,0,0,0.00
2012-12-20,57,48,40,45,36,30,68,53,29,30.23,30.05,5,1,0,0.00
2012-12-21,59,54,47,51,45,38,69,65,55,30.04,29.92,9,3,0,0.00